HB9IMQ-13 Weather Reports


time (UTC)temp
F
wind
direction
speed
knots
gust
knots
rain 1hr
in
rain 24hr
in
rain mn
in
humidity
%
barometer
mb
20260507181023 58 17 1.7 5.2 0.00 0.28 0.06 69 1012.7
20260507180021 58 355 3.5 5.2 0.00 0.28 0.06 68 1012.5
20260507175041 59 5 2.6 4.3 0.00 0.28 0.06 67 1012.6
20260507174050 59 55 0.9 2.6 0.00 0.28 0.06 68 1012.4
20260507173026 60 346 2.6 4.3 0.00 0.28 0.06 68 1012.3
20260507172023 59 36 1.7 5.2 0.00 0.28 0.06 68 1012.4
20260507171018 59 5 2.6 6.1 0.00 0.28 0.06 67 1012.3
20260507170015 60 355 3.5 7.0 0.00 0.28 0.06 66 1012.3
20260507165049 60 360 3.5 8.7 0.00 0.28 0.06 65 1012.2
20260507164026 61 15 4.3 7.8 0.00 0.28 0.06 64 1012.1
20260507163024 61 64 1.7 3.5 0.00 0.28 0.06 67 1012.2
20260507162014 60 48 0.9 3.5 0.00 0.28 0.06 66 1012.1
20260507161027 60 68 1.7 3.5 0.00 0.28 0.06 67 1012.2
20260507160058 61 55 2.6 3.5 0.00 0.28 0.06 66 1012.1
20260507155026 61 342 0.0 2.6 0.00 0.28 0.06 64 1012.2
20260507154044 61 342 3.5 4.3 0.00 0.28 0.06 65 1012.2
20260507153016 61 110 1.7 3.5 0.00 0.28 0.06 64 1012.2
20260507152018 62 117 1.7 5.2 0.00 0.28 0.06 63 1012.1
20260507151032 63 22 0.9 4.3 0.00 0.28 0.06 62 1012.3
20260507150019 64 301 3.5 6.1 0.00 0.28 0.06 65 1012.3
20260507145016 64 5 1.7 7.0 0.00 0.28 0.06 66 1012.3
20260507144028 63 309 2.6 7.0 0.00 0.28 0.06 64 1012.3
20260507143045 62 267 0.9 7.0 0.00 0.28 0.06 70 1012.2
20260507142022 61 303 3.5 7.8 0.00 0.28 0.06 70 1012.3
20260507141015 61 300 3.5 9.6 0.00 0.28 0.06 70 1012.3
20260507140030 60 306 2.6 9.6 0.00 0.31 0.06 70 1012.3
20260507135048 61 327 4.3 9.6 0.00 0.31 0.06 71 1012.5
20260507134022 60 296 3.5 7.8 0.00 0.31 0.06 71 1012.5
20260507133039 61 348 6.1 9.6 0.00 0.31 0.06 72 1012.5
20260507132027 60 9 2.6 5.2 0.00 0.31 0.06 70 1012.6
20260507131024 61 39 2.6 5.2 0.00 0.31 0.06 71 1012.5
20260507130022 62 84 2.6 7.0 0.00 0.87 0.06 70 1012.4
20260507125022 63 53 2.6 7.8 0.00 0.87 0.06 66 1012.6
20260507124038 63 348 6.1 9.6 0.00 0.87 0.06 69 1012.6
20260507123027 63 94 1.7 8.7 0.00 0.87 0.06 69 1012.6
20260507122027 62 69 4.3 8.7 0.00 0.87 0.06 72 1012.6
20260507121025 62 275 2.6 10.4 0.00 0.87 0.06 72 1012.5
20260507120038 63 320 2.6 8.7 0.00 2.13 0.06 72 1012.6
20260507115037 63 320 4.3 11.3 0.00 2.13 0.06 70 1012.5
20260507114027 63 348 3.5 11.3 0.00 2.13 0.06 69 1012.5
20260507113026 62 275 3.5 7.8 0.00 2.13 0.06 66 1012.6
20260507112018 61 13 2.6 7.8 0.00 2.13 0.06 73 1012.7
20260507111029 61 266 2.6 7.0 0.00 2.13 0.06 74 1012.7
20260507110028 60 323 2.6 4.3 0.00 2.36 0.06 74 1012.8
20260507105027 59 250 1.7 8.7 0.00 2.36 0.06 75 1012.8
20260507104019 58 36 5.2 7.8 0.00 2.36 0.06 77 1013.0
20260507103049 58 293 1.7 8.7 0.00 2.36 0.06 77 1013.0
20260507102025 58 298 3.5 7.8 0.00 2.36 0.06 79 1013.1
20260507101021 57 277 1.7 6.1 0.00 2.36 0.06 80 1013.2
20260507100018 56 306 0.9 7.0 0.00 2.36 0.06 85 1013.2
20260507095017 55 302 0.9 7.0 0.00 2.36 0.06 85 1013.2
20260507094031 54 24 1.7 4.3 0.00 2.36 0.06 87 1013.2
20260507093020 54 279 3.5 7.0 0.00 2.36 0.06 86 1013.2
20260507092017 53 281 3.5 7.8 0.04 2.36 0.06 88 1013.2
20260507091028 53 282 1.7 7.8 0.04 2.36 0.06 88 1013.2
20260507090027 52 295 2.6 5.2 0.08 2.36 0.06 89 1013.1
20260507085021 52 345 1.7 4.3 0.08 2.36 0.06 89 1013.0
20260507084040 52 346 1.7 2.6 0.12 2.36 0.06 90 1013.0
20260507083016 51 301 0.0 1.7 0.16 2.36 0.06 90 1013.0
20260507082035 51 263 0.9 1.7 0.12 2.32 0.05 89 1013.0
20260507081025 51 285 0.0 1.7 0.12 2.32 0.05 89 1013.0
20260507080024 51 273 0.0 1.7 0.12 2.28 0.04 90 1013.0
20260507075023 50 273 0.0 0.9 0.08 2.24 0.03 90 1013.0
20260507074022 50 269 0.0 1.7 0.08 2.24 0.03 90 1012.9
20260507073014 50 306 0.0 3.5 0.04 2.20 0.02 90 1012.8
20260507072050 50 296 0.9 2.6 0.04 2.20 0.02 90 1012.8
20260507071028 50 299 0.0 1.7 0.04 2.20 0.02 90 1012.7
20260507070018 50 343 0.0 1.7 0.00 2.17 0.02 90 1012.6
20260507065016 50 343 0.0 1.7 0.00 2.17 0.02 91 1012.6
20260507064034 49 343 0.0 0.9 0.00 2.17 0.02 91 1012.5
20260507063034 49 343 0.0 0.9 0.00 2.17 0.02 91 1012.3
20260507062030 49 343 0.0 0.0 0.00 2.17 0.02 91 1012.3
20260507061045 49 343 0.0 1.7 0.00 2.17 0.02 91 1012.2
20260507060019 48 343 0.0 0.0 0.00 2.17 0.02 91 1012.2
20260507055028 48 343 0.0 0.0 0.00 2.17 0.02 91 1012.1
20260507054026 48 343 0.0 0.0 0.00 2.17 0.02 91 1012.0
20260507053018 48 343 0.0 0.0 0.00 2.17 0.02 91 1011.9
20260507052018 48 343 0.0 0.0 0.00 2.17 0.02 91 1011.8
20260507051038 47 343 0.0 0.0 0.00 2.17 0.02 91 1011.6
20260507050058 47 343 0.0 0.0 0.00 2.17 0.02 91 1011.6
20260507045036 47 343 0.0 0.0 0.00 2.17 0.02 91 1011.6
20260507044027 47 319 0.0 0.0 0.00 2.17 0.02 91 1011.4
20260507043025 47 319 0.0 0.0 0.00 2.17 0.02 91 1011.3
20260507042019 47 319 0.0 0.0 0.00 2.17 0.02 90 1011.3
20260507041029 47 319 0.0 0.0 0.00 2.17 0.02 90 1011.2
20260507040029 47 319 0.0 0.9 0.00 2.17 0.02 90 1011.2
20260507035026 47 319 0.0 0.0 0.00 2.17 0.02 90 1011.1
20260507034018 47 319 0.0 0.0 0.00 2.17 0.02 90 1011.1
20260507033037 47 319 0.0 0.9 0.04 2.17 0.02 90 1011.0
20260507032029 47 320 0.0 0.9 0.04 2.17 0.02 90 1010.9
20260507031027 47 320 0.0 0.9 0.04 2.17 0.02 90 1010.9
20260507030027 47 320 0.0 1.7 0.04 2.17 0.02 89 1010.8
20260507025026 47 327 0.9 1.7 0.04 2.17 0.02 89 1010.8
20260507024018 47 327 0.0 0.9 0.04 2.13 0.01 89 1010.7
20260507023048 47 331 0.0 2.6 0.04 2.13 0.01 89 1010.8
20260507022056 47 304 0.0 1.7 0.04 2.13 0.01 89 1010.7
20260507021023 47 281 0.9 8.7 0.04 2.13 0.01 89 1010.7
20260507020018 47 273 0.9 3.5 0.04 2.13 0.01 89 1010.6
20260507015031 47 266 1.7 5.2 0.04 2.13 0.01 89 1010.5
20260507014023 47 267 1.7 6.1 0.00 2.09 0.00 90 1010.5
20260507013020 46 264 1.7 3.5 0.00 2.09 0.00 91 1010.4
20260507012034 46 282 0.9 2.6 0.00 2.09 0.00 91 1010.4
20260507011026 46 290 0.0 3.5 0.00 2.09 0.00 91 1010.3
20260507010025 46 271 0.0 1.7 0.00 2.09 0.00 91 1010.2
20260507005023 46 266 0.0 2.6 0.00 2.09 0.00 91 1010.2
20260507004014 45 276 1.7 5.2 0.00 2.09 0.00 91 1010.2
20260507003057 45 232 0.0 1.7 0.00 2.09 0.00 91 1010.2
20260507002026 44 232 0.9 2.6 0.00 2.09 0.00 91 1010.2
20260507001026 43 217 0.0 1.7 0.00 2.09 0.00 91 1010.2
20260507000043 43 215 0.0 0.9 0.00 2.09 0.00 91 1010.2
20260506235023 42 215 0.0 0.9 0.00 2.09 0.00 91 1010.2
20260506234041 42 215 0.0 0.0 0.00 2.09 0.00 91 1010.2
20260506233040 42 215 0.0 1.7 0.00 2.09 0.00 91 1010.1
20260506232018 42 215 0.0 0.9 0.00 2.09 0.00 91 1010.1
20260506231038 42 215 0.0 0.0 0.00 2.09 0.00 91 1010.1
20260506230029 43 215 0.0 0.0 0.00 2.09 0.00 91 1010.0
20260506225052 43 215 0.0 0.0 0.00 2.09 0.00 91 1010.0
20260506224025 43 215 0.0 0.9 0.00 2.09 0.00 91 1010.1
20260506223023 43 215 0.0 0.0 0.00 2.09 0.00 91 1010.0
20260506222023 43 215 0.0 0.0 0.00 2.09 0.00 90 1010.1
20260506221015 43 215 0.0 0.0 0.00 2.09 0.00 90 1010.0
20260506220029 43 215 0.0 0.0 0.00 2.09 0.42 90 1010.0
20260506215029 44 215 0.0 1.7 0.00 2.09 0.42 90 1009.9
20260506214048 44 215 0.0 0.9 0.00 2.09 0.42 90 1010.0
20260506213046 44 215 0.0 0.9 0.00 2.09 0.42 90 1010.0
20260506212019 44 215 0.0 0.0 0.00 2.09 0.42 90 1010.1
20260506211059 44 215 0.0 0.9 0.00 2.09 0.42 90 1010.0
20260506210026 45 215 0.0 0.0 0.00 2.09 0.42 89 1010.0
20260506205025 45 215 0.0 0.9 0.00 2.09 0.42 89 1009.8
20260506204022 45 215 0.0 0.0 0.00 2.09 0.42 89 1009.8
20260506203033 46 215 0.0 0.0 0.00 2.09 0.42 89 1009.8
20260506202028 46 215 0.0 1.7 0.00 2.09 0.42 89 1009.7
20260506201027 46 215 0.0 0.9 0.00 2.09 0.42 88 1009.7
20260506200046 46 215 0.0 0.9 0.00 2.09 0.42 88 1009.7
20260506195020 47 270 0.0 0.0 0.00 2.09 0.42 87 1009.5
20260506194049 47 270 0.0 0.0 0.00 2.09 0.42 87 1009.2
20260506193025 48 270 0.0 0.0 0.00 2.09 0.42 86 1009.1
20260506192019 48 270 0.0 0.0 0.00 2.09 0.42 86 1008.9
20260506191017 49 270 0.0 2.6 0.00 2.09 0.42 86 1008.9
20260506190030 49 279 0.0 2.6 0.00 2.09 0.42 85 1008.8
20260506185048 49 284 0.0 2.6 0.00 2.09 0.42 85 1008.8
20260506184025 49 281 0.0 3.5 0.00 2.09 0.42 85 1008.8
20260506183042 50 288 0.0 2.6 0.00 2.09 0.42 84 1008.7
20260506182014 50 278 0.9 2.6 0.00 2.09 0.42 84 1008.6